Weather History for Ukiah, CA

Change the Weather History Date:

Tuesday, July 16, 2013

  Actual Average Record
Temperature  
Mean Temperature 67 °F 74 °F  
Max Temperature 82 °F 93 °F 110 °F (1911)
Min Temperature 52 °F 56 °F 41 °F (1920)
Degree Days  
Heating Degree Days 0 0  
Month to date heating degree days 0  
Since 1 June heating degree days 32  
Since 1 July heating degree days 0  
Cooling Degree Days 2 9  
Month to date cooling degree days 133  
Year to date cooling degree days 297  
Since 1 June cooling degree days 245  
Growing Degree Days 17 (Base 50)    
Moisture  
Dew Point 51 °F    
Average Humidity 68    
Maximum Humidity 96    
Minimum Humidity 39    
Precipitation  
Precipitation 0.00 in 0.00 in 0.04 in (1991)
Month to date precipitation 0.03 0.04  
Year to date precipitation 5.61 23.42  
Since 1 July precipitation 0.03 0.04  
Snow  
Snow 0.00 in - - ()
Month to date snowfall 0.0  
Since 1 June snowfall 0.0  
Since 1 July snowfall 0.0  
Snow Depth -    
Sea Level Pressure  
Sea Level Pressure 29.91 in    
Wind  
Wind Speed 9 mph (SE)    
Max Wind Speed 16 mph    
Max Gust Speed 21 mph    
Visibility 10 miles    
Events      
T = Trace of Precipitation, MM = Missing Value Source: NWS Daily Summary

Daily Weather History Graph

Daily Weather History Graph

Search for Another Location

Airport:

Trip Planner

Search our weather history database for the weather conditions in past years. The results will help you decide how hot, cold, wet, or windy it might be!

Date:

Astronomy

Jul. 16, 2013 Rise Set
Actual Time 6:00 AM PDT 8:37 PM PDT
Civil Twilight 5:28 AM PDT 9:08 PM PDT
Nautical Twilight 4:50 AM PDT 9:47 PM PDT
Astronomical Twilight 4:06 AM PDT 10:30 PM PDT
Moon 2:26 PM PDT (7/16) 12:31 AM PDT (7/16)
Length of Visible Light 15h 39m
Length of Day
14h 37m
First Quarter, 57% of the Moon is Illuminated
Jul 16
First Quarter
Jul 22
Full
Jul 29
Last Quarter
Aug 6
New
Aug 14
First Quarter

Hourly Weather History & Observations

Time (PDT) Temp. Heat Index Dew Point Humidity Pressure Visibility Wind Dir Wind Speed Gust Speed Precip Events Conditions
12:56 AM 55.0 °F - 50.0 °F 83% 29.83 in 10.0 mi SSE 6.9 mph - N/A   Clear
1:56 AM 53.1 °F - 48.9 °F 86% 29.83 in 10.0 mi South 4.6 mph - N/A   Clear
2:56 AM 52.0 °F - 50.0 °F 93% 29.83 in 10.0 mi SSE 5.8 mph - N/A   Partly Cloudy
3:09 AM 53.6 °F - 50.0 °F 88% 29.85 in 10.0 mi SSE 4.6 mph - N/A   Mostly Cloudy
3:56 AM 54.0 °F - 50.0 °F 86% 29.84 in 10.0 mi SSE 6.9 mph - N/A   Overcast
4:56 AM 54.0 °F - 50.0 °F 86% 29.85 in 10.0 mi SSE 9.2 mph - N/A   Overcast
5:56 AM 53.1 °F - 48.9 °F 86% 29.87 in 10.0 mi SE 8.1 mph - N/A   Overcast
6:56 AM 53.1 °F - 48.9 °F 86% 29.88 in 10.0 mi SE 6.9 mph - N/A   Overcast
7:56 AM 54.0 °F - 48.9 °F 83% 29.90 in 10.0 mi SE 9.2 mph - N/A   Overcast
8:10 AM 53.6 °F - 48.2 °F 82% 29.92 in 10.0 mi SSE 6.9 mph - N/A   Overcast
8:56 AM 55.9 °F - 48.0 °F 75% 29.92 in 10.0 mi ESE 9.2 mph - N/A   Overcast
9:43 AM 59.0 °F - 48.2 °F 67% 29.94 in 10.0 mi SE 10.4 mph - N/A   Overcast
9:56 AM 60.1 °F - 48.9 °F 67% 29.93 in 10.0 mi SE 8.1 mph - N/A   Mostly Cloudy
10:15 AM 60.8 °F - 48.2 °F 63% 29.94 in 10.0 mi Variable 5.8 mph - N/A   Partly Cloudy
10:56 AM 64.0 °F - 48.9 °F 58% 29.93 in 10.0 mi SE 6.9 mph - N/A   Clear
11:56 AM 68.0 °F - 50.0 °F 52% 29.93 in 10.0 mi SE 12.7 mph 16.1 mph N/A   Clear
12:56 PM 71.1 °F - 50.0 °F 47% 29.92 in 10.0 mi SE 10.4 mph - N/A   Clear
1:56 PM 77.0 °F - 52.0 °F 42% 29.91 in 10.0 mi SE 13.8 mph 19.6 mph N/A   Clear
2:56 PM 78.1 °F - 52.0 °F 40% 29.90 in 10.0 mi SSE 13.8 mph 19.6 mph N/A   Clear
3:56 PM 81.0 °F 80.4 °F 53.1 °F 38% 29.89 in 10.0 mi SE 13.8 mph - N/A   Clear
4:56 PM 82.0 °F 81.2 °F 53.1 °F 37% 29.89 in 10.0 mi SE 11.5 mph - N/A   Clear
5:56 PM 80.1 °F 80.0 °F 54.0 °F 40% 29.89 in 10.0 mi SE 8.1 mph - N/A   Clear
6:56 PM 79.0 °F - 54.0 °F 42% 29.90 in 10.0 mi South 6.9 mph - N/A   Clear
7:56 PM 70.0 °F - 53.1 °F 55% 29.93 in 10.0 mi NNE 8.1 mph - N/A   Clear
8:56 PM 64.0 °F - 52.0 °F 65% 29.96 in 10.0 mi North 6.9 mph - N/A   Clear
9:56 PM 62.1 °F - 52.0 °F 70% 29.99 in 10.0 mi North 3.5 mph - N/A   Clear
10:56 PM 60.1 °F - 52.0 °F 75% 30.01 in 10.0 mi Calm Calm - N/A   Clear
11:56 PM 59.0 °F - 52.0 °F 78% 30.02 in 10.0 mi NNE 4.6 mph - N/A   Clear